Location: Foulognes
(49.1413°N, 0.8183°W)
Time: 06:26:18
(UTC+00:00)

Cosmos 2082 Rocket - Pass Details

Date: 21 October 2019
Orbit: 832 x 855 km, 71.0° (Epoch: 13 November)

Event Time Altitude Azimuth Distance (km) Brightness Sun altitude
Rises 19:40:00 0° 324° (NW) 3,433 6.1 -26.3°
Reaches altitude 10° 19:42:47 10° 313° (NW) 2,490 5.4 -26.8°
Maximum altitude 19:47:31 28° 257° (WSW) 1,556 4.1 -27.5°
Drops below altitude 10° 19:52:14 10° 200° (SSW) 2,464 4.6 -28.3°
Enters shadow 19:53:58 - 192° (SSW) 3,037 5.0 -28.5°
